KL1V-13 Weather Reports


Display with metric or nautical units.
time (UTC)temp
F
wind
direction
speed
MPH
gust
MPH
rain 1hr
in
rain 24hr
in
rain mn
in
humidity
%
barometer
mb
20260509030714 43 341 4.0 5.0 0.00 0.02 0.02 72 1003.4
20260509025714 43 15 2.0 4.0 0.00 0.02 0.02 73 1003.4
20260509024715 44 322 3.0 6.0 0.00 0.02 0.02 72 1003.8
20260509023735 44 22 0.0 2.0 0.00 0.02 0.02 71 1003.8
20260509022714 45 323 4.0 8.0 0.00 0.02 0.02 69 1003.8
20260509021756 45 127 1.0 3.0 0.00 0.02 0.02 66 1004.1
20260509020714 45 90 0.0 2.0 0.00 0.02 0.02 65 1004.1
20260509015714 46 109 1.0 3.0 0.00 0.02 0.02 64 1004.1
20260509014714 47 122 2.0 4.0 0.00 0.02 0.02 63 1004.1
20260509013714 46 0.0 0.0 0.00 0.02 0.02 62 1004.1
20260509012756 47 204 1.0 4.0 0.00 0.02 0.02 62 1004.4
20260509011715 47 202 0.0 1.0 0.00 0.02 0.02 61 1004.4
20260509010714 48 225 0.0 2.0 0.00 0.02 0.02 60 1004.8
20260509005715 48 0.0 0.0 0.00 0.02 0.02 60 1004.8
20260509004715 48 206 1.0 2.0 0.00 0.02 0.02 60 1004.8
20260509003714 48 182 1.0 4.0 0.00 0.02 0.02 59 1004.8
20260509002714 49 225 1.0 3.0 0.00 0.02 0.02 59 1005.1
20260509001736 49 218 2.0 4.0 0.00 0.02 0.02 59 1005.5
20260509000714 49 95 2.0 4.0 0.00 0.02 0.02 59 1005.5
20260508235755 49 128 5.0 10.0 0.00 0.02 0.02 59 1005.5
20260508234714 48 94 2.0 3.0 0.00 0.02 0.02 60 1005.6
20260508233714 48 75 2.0 4.0 0.00 0.02 0.02 59 1005.8
20260508232715 49 144 1.0 3.0 0.00 0.02 0.02 59 1005.8
20260508231714 48 180 1.0 4.0 0.00 0.02 0.02 60 1006.1
20260508230716 48 351 1.0 2.0 0.00 0.02 0.02 60 1006.1
20260508225714 48 180 1.0 6.0 0.00 0.02 0.02 59 1006.1
20260508224714 48 187 1.0 3.0 0.00 0.02 0.02 60 1006.5
20260508223714 47 67 0.0 1.0 0.00 0.02 0.02 60 1006.5
20260508222714 47 218 2.0 3.0 0.00 0.02 0.02 61 1006.5
20260508221714 47 107 5.0 7.0 0.00 0.02 0.02 61 1006.5
20260508220714 47 133 3.0 5.0 0.00 0.02 0.02 61 1006.8
20260508215734 47 151 3.0 5.0 0.00 0.02 0.02 62 1006.8
20260508214735 46 339 2.0 4.0 0.00 0.02 0.02 63 1006.8
20260508213714 46 112 1.0 2.0 0.00 0.02 0.02 64 1007.1
20260508212714 46 179 1.0 4.0 0.00 0.02 0.02 64 1007.2
20260508211714 46 105 2.0 4.0 0.00 0.02 0.02 65 1007.2
20260508210714 46 112 2.0 3.0 0.00 0.02 0.02 65 1007.5
20260508205735 46 124 5.0 6.0 0.00 0.02 0.02 65 1007.5
20260508204714 46 79 1.0 3.0 0.00 0.02 0.02 66 1007.8
20260508203714 45 112 2.0 3.0 0.00 0.02 0.02 65 1007.8
20260508202735 45 112 1.0 4.0 0.00 0.02 0.02 67 1007.8
20260508201714 44 112 0.0 1.0 0.00 0.02 0.02 68 1007.9
20260508200714 44 112 2.0 3.0 0.00 0.02 0.02 68 1008.2
20260508195714 44 112 1.0 3.0 0.00 0.02 0.02 69 1008.2
20260508194715 44 112 1.0 3.0 0.00 0.02 0.02 69 1008.5
20260508193714 44 112 0.0 1.0 0.00 0.02 0.02 68 1008.5
20260508192714 44 175 0.0 2.0 0.00 0.02 0.02 68 1008.5
20260508191735 45 112 0.0 2.0 0.00 0.02 0.02 68 1008.5
20260508190734 45 0.0 0.0 0.00 0.02 0.02 68 1008.9
20260508185735 46 212 1.0 3.0 0.00 0.02 0.02 69 1008.9
20260508184714 45 143 2.0 3.0 0.00 0.02 0.02 69 1009.2
20260508183714 45 117 3.0 4.0 0.00 0.02 0.02 68 1009.2
20260508182715 45 99 2.0 3.0 0.00 0.02 0.02 69 1009.2
20260508181714 44 22 0.0 1.0 0.00 0.02 0.02 73 1009.2
20260508180714 43 90 2.0 3.0 0.00 0.02 0.02 75 1009.5
20260508175735 43 112 1.0 4.0 0.00 0.02 0.02 76 1009.5
20260508174714 43 90 2.0 3.0 0.00 0.02 0.02 77 1009.9
20260508173714 43 67 0.0 1.0 0.00 0.02 0.02 81 1009.9
20260508172715 42 155 2.0 3.0 0.00 0.02 0.02 83 1009.9
20260508171716 42 112 2.0 3.0 0.00 0.02 0.02 84 1010.2
20260508170714 41 0.0 0.0 0.00 0.02 0.02 87 1010.2
20260508165714 40 0.0 0.0 0.00 0.02 0.02 88 1010.2
20260508164714 40 0.0 0.0 0.00 0.02 0.02 89 1010.2
20260508163714 39 0.0 0.0 0.00 0.02 0.02 90 1010.2
20260508162715 39 0.0 1.0 0.00 0.02 0.02 91 1010.3
20260508161714 38 0.0 0.0 0.00 0.02 0.02 92 1010.3
20260508160714 37 0.0 0.0 0.00 0.02 0.02 92 1010.3
20260508155715 37 0.0 0.0 0.00 0.02 0.02 92 1010.6
20260508154714 36 0.0 0.0 0.00 0.02 0.02 92 1010.6
20260508153714 36 0.0 0.0 0.00 0.02 0.02 92 1010.8
20260508152735 35 0.0 0.0 0.00 0.02 0.02 92 1010.9
20260508151714 35 0.0 0.0 0.00 0.02 0.02 92 1010.9
20260508150735 35 0.0 0.0 0.00 0.02 0.02 92 1010.9
20260508145714 34 0.0 0.0 0.00 0.02 0.02 92 1011.2
20260508144735 34 0.0 0.0 0.00 0.02 0.02 91 1011.2
20260508143714 34 0.0 0.0 0.00 0.02 0.02 91 1011.2
20260508142715 34 0.0 0.0 0.00 0.02 0.02 91 1011.5
20260508141714 34 0.0 0.0 0.00 0.02 0.02 91 1011.6
20260508140714 35 0.0 0.0 0.00 0.02 0.02 91 1011.9
20260508135714 35 0.0 0.0 0.00 0.02 0.02 91 1011.9
20260508134714 34 0.0 0.0 0.00 0.02 0.02 91 1011.9
20260508133735 34 0.0 0.0 0.00 0.02 0.02 91 1011.9
20260508132714 35 0.0 0.0 0.00 0.02 0.02 91 1012.3
20260508131735 34 0.0 0.0 0.00 0.02 0.02 91 1012.3
20260508130735 34 0.0 0.0 0.00 0.02 0.02 91 1012.6
20260508125714 34 0.0 0.0 0.00 0.02 0.02 90 1012.6
20260508124735 34 0.0 0.0 0.00 0.02 0.02 90 1012.6
20260508123714 35 0.0 0.0 0.00 0.02 0.02 90 1012.6
20260508122714 35 0.0 0.0 0.00 0.02 0.02 90 1012.9
20260508121714 35 0.0 0.0 0.00 0.02 0.02 90 1012.9
20260508120714 35 0.0 0.0 0.01 0.02 0.02 90 1012.9
20260508115714 35 0.0 0.0 0.01 0.02 0.02 90 1013.3
20260508114715 35 0.0 0.0 0.01 0.02 0.02 90 1013.3
20260508113714 35 315 0.0 2.0 0.01 0.02 0.02 90 1013.5
20260508112714 35 0.0 0.0 0.02 0.02 0.02 90 1013.6
20260508111755 35 0.0 0.0 0.02 0.02 0.02 90 1013.6
20260508110735 35 0.0 0.0 0.01 0.01 0.01 90 1013.6
20260508105714 35 0.0 0.0 0.01 0.01 0.01 89 1014.0
20260508104755 35 0.0 0.0 0.01 0.01 0.01 89 1014.0
20260508103735 36 0.0 0.0 0.01 0.01 0.01 89 1014.0
20260508102735 36 0.0 0.0 0.00 0.00 0.00 89 1014.0
20260508101735 36 337 1.0 1.0 0.00 0.00 0.00 89 1014.3
20260508100714 36 0.0 0.0 0.00 0.00 0.00 89 1014.6
20260508095714 36 0.0 0.0 0.00 0.00 0.00 89 1014.6
20260508094714 35 0.0 0.0 0.00 0.00 0.00 89 1014.6
20260508093755 36 0.0 0.0 0.00 0.00 0.00 89 1014.6
20260508092714 36 0.0 0.0 0.00 0.00 0.00 88 1014.6
20260508091715 36 0.0 0.0 0.00 0.00 0.00 89 1014.6
20260508090714 36 0.0 0.0 0.00 0.00 0.00 88 1014.6
20260508085736 36 0.0 0.0 0.00 0.00 0.00 88 1015.0
20260508084714 37 337 0.0 2.0 0.00 0.00 0.00 88 1015.0
20260508083714 37 0.0 0.0 0.00 0.00 0.00 88 1015.0
20260508082714 37 0.0 0.0 0.00 0.00 0.00 87 1015.0
20260508081734 38 0.0 0.0 0.00 0.00 0.00 87 1015.3
20260508080735 38 0.0 0.0 0.00 0.00 0.00 87 1015.3
20260508075715 37 0.0 0.0 0.00 0.00 0.00 87 1015.6
20260508074715 38 0.0 0.0 0.00 0.00 0.00 87 1015.6
20260508073714 38 90 0.0 2.0 0.00 0.00 0.00 87 1015.7
20260508072714 38 90 0.0 1.0 0.00 0.00 0.00 88 1015.7
20260508071755 38 0.0 0.0 0.00 0.00 0.00 88 1015.9
20260508070714 37 0.0 0.0 0.00 0.00 0.00 88 1016.0
20260508065734 37 316 2.0 3.0 0.00 0.00 0.00 88 1016.0
20260508064715 38 0.0 0.0 0.00 0.00 0.00 88 1016.0
20260508063714 38 0.0 0.0 0.00 0.00 0.00 88 1016.3
20260508062714 38 45 2.0 3.0 0.00 0.00 0.00 88 1016.1
20260508061735 38 315 2.0 2.0 0.00 0.00 0.00 88 1016.3
20260508060714 39 0.0 0.0 0.00 0.00 0.00 88 1016.3
20260508055714 39 0.0 0.0 0.00 0.00 0.00 88 1016.3
20260508054715 39 0.0 0.0 0.00 0.00 0.00 88 1016.3
20260508053714 40 0.0 0.0 0.00 0.00 0.00 87 1016.3
20260508052714 40 315 1.0 2.0 0.00 0.00 0.00 86 1016.3
20260508051815 40 0.0 0.0 0.00 0.00 0.00 84 1016.7
20260508050714 41 0.0 0.0 0.00 0.00 0.00 83 1016.7
20260508045714 41 0.0 0.0 0.00 0.00 0.00 80 1016.7
20260508044714 41 0.0 0.0 0.00 0.00 0.00 79 1017.0
20260508043715 42 0.0 0.0 0.00 0.00 0.00 79 1016.8
20260508042715 42 112 0.0 1.0 0.00 0.00 0.00 77 1017.0
20260508041714 43 0.0 0.0 0.00 0.00 0.00 76 1016.7
20260508040715 43 358 1.0 2.0 0.00 0.00 0.00 76 1017.0
20260508035714 43 339 1.0 4.0 0.00 0.00 0.00 75 1017.0
20260508034714 43 342 3.0 5.0 0.00 0.00 0.00 75 1017.0
20260508033715 43 330 5.0 6.0 0.00 0.00 0.00 75 1017.0
20260508032735 43 356 4.0 5.0 0.00 0.00 0.00 75 1017.4
20260508031714 43 315 4.0 5.0 0.00 0.00 0.00 75 1017.4